This demonstration page uses our WeatherBlox Daily Observations layout. Learn more.

Left ArrowRight Arrow

39.12711, -84.51439

Hourly Observations for September 3, 2018

Temp ( °F °C ) Dew Point ( °F °C ) Humidity (%) Winds ( mph kmh ) Pressure ( in mb ) Visibility ( mi km ) Precip ( " mm )
12:53 am 00:53 Clear 74 23.3 74 23.3 100 100 Calm 30.20 1023 10 16 0.00 0.00
1:53 am 01:53 Clear 73 22.8 73 22.8 100 100 Calm 30.20 1023 8 13 0.00 0.00
2:40 am 02:40 Clear with Mist and Fog 72 22.2 72 22.2 100 100 Calm 30.18 1022 2 2 0.00 0.00
2:49 am 02:49 Clear with Fog 72 22 72 22 100 100 Calm 30.18 1022 1 1 0.00 0.00
2:53 am 02:53 Clear with Mist and Fog 71 21.7 71 21.7 100 100 NE 3 6 30.20 1023 1 1 0.00 0.00
3:00 am 03:00 Clear with Mist and Fog 72 22.2 72 22.2 100 100 Calm 30.18 1022 2 3 0.00 0.00
3:08 am 03:08 Clear 72 22.2 72 22.2 100 100 Calm 30.18 1022 7 11 0.00 0.00
3:53 am 03:53 Clear with Mist and Fog 72 22.2 72 22.2 100 100 Calm 30.19 1023 6 10 0.00 0.00
4:53 am 04:53 Clear with Mist and Fog 72 22.2 72 22.2 100 100 Calm 30.20 1023 6 10 0.00 0.00
5:02 am 05:02 Clear with Mist and Fog 71 21.7 71 21.7 100 100 Calm 30.18 1022 2 3 0.00 0.00
5:10 am 05:10 Clear with Mist and Fog 72 22.2 72 22.2 100 100 Calm 30.18 1022 3 5 0.00 0.00
5:21 am 05:21 Clear with Mist and Fog 70 21.1 70 21.1 100 100 Calm 30.18 1022 2 2 0.00 0.00
5:32 am 05:32 Clear with Mist and Fog 71 21.7 71 21.7 100 100 Calm 30.18 1022 4 6 0.00 0.00
5:53 am 05:53 Clear 72 22.2 72 22.2 100 100 Calm 30.22 1023 7 11 0.00 0.00
6:20 am 06:20 Clear with Mist and Fog 71 21.7 71 21.7 100 100 Calm 30.21 1023 2 2 0.00 0.00
6:37 am 06:37 Clear with Mist and Fog 71 21.7 71 21.7 100 100 Calm 30.21 1023 4 6 0.00 0.00
6:53 am 06:53 Clear with Patchy Fog 70 21.1 70 21.1 100 100 Calm 30.22 1024 5 8 0.00 0.00
7:53 am 07:53 Sunny with Mist and Fog 72 22.2 72 22.2 100 100 Calm 30.24 1024 5 8 0.00 0.00
8:53 am 08:53 Sunny with Light Rain 76 24.4 75 23.9 97 97 Calm 30.26 1025 9 14 0.00 0.03
9:53 am 09:53 Sunny 80 26.7 75 23.9 85 85 Calm 30.26 1025 10 16 0.00 0.03
10:53 am 10:53 Sunny 85 29.4 76 24.4 75 75 Calm 30.27 1025 10 16 0.00 0.00
11:53 am 11:53 Mostly Sunny 87 30.6 75 23.9 67 67 Calm 30.26 1025 10 16 0.00 0.00
12:53 pm 12:53 Partly Cloudy 89 31.7 73 22.8 59 59 S 6 9 30.24 1024 10 16 0.00 0.00
1:53 pm 13:53 Sunny 91 32.8 73 22.8 56 56 SW 7 11 30.23 1024 10 16 0.00 0.00
2:53 pm 14:53 Partly Cloudy 90 32.2 74 23.3 59 59 SSW 6 9 30.21 1023 10 16 0.00 0.00
3:53 pm 15:53 Mostly Cloudy 91 32.8 73 22.8 56 56 SSE 6 9 30.19 1022 10 16 0.00 0.00
4:53 pm 16:53 Mostly Cloudy 91 32.8 73 22.8 56 56 S 3 6 30.17 1022 10 16 0.00 0.00
5:53 pm 17:53 Mostly Cloudy 87 30.6 73 22.8 63 63 S 6 9 30.17 1022 10 16 0.00 0.00
6:53 pm 18:53 Mostly Cloudy 84 28.9 76 24.4 77 77 S 3 6 30.19 1022 10 16 0.00 0.00
7:53 pm 19:53 Sunny 83 28.3 77 25 82 82 SE 3 6 30.19 1022 10 16 0.00 0.00
8:53 pm 20:53 Clear 78 25.6 76 24.4 93 93 SE 3 6 30.21 1023 10 16 0.00 0.00
9:53 pm 21:53 Clear 76 24.4 75 23.9 97 97 Calm 30.23 1024 10 16 0.00 0.00
10:53 pm 22:53 Clear 76 24.4 75 23.9 97 97 Calm 30.24 1024 10 16 0.00 0.00
11:53 pm 23:53 Clear 74 23.3 74 23.3 100 100 Calm 30.24 1024 10 16 0.00 0.00

Powered by AerisWeather